Temp
9 9 10 11 12 13 15 17 18 18 18 18 17 15 15 14 14 12 11 11 10 10 9 9 9 9 9 11 12 11 11 12 11 11 10 10 10 9 9 11 10 10 10 10
10 10 11 12 13 13 14 15 17 18 18 18 18 16 16 15 13 11 11 12 11 10 10 9 9 9 9 11 12 11 11 12 11 11 11 10 10 10 8 9 10 10 10 10
11 12 11 12 13 14 14 15 16 17 18 18 18 16 14 15 14 11 12 13 12 11 11 10 10 9 9 12 12 12 12 12 11 11 11 10 10 10 10 9 10 11 10 10
11 11 13 12 13 14 14 15 15 16 17 18 18 18 14 15 11 13 13 12 12 12 11 10 10 9 10 12 12 12 12 12 11 11 11 11 11 11 11 9 10 11 11 11
11 12 12 13 13 13 14 14 15 15 15 17 18 18 19 15 13 14 14 13 13 12 11 10 11 12 11 12 13 12 12 12 11 12 11 11 11 10 11 10 9 11 11 11
11 11 12 12 13 13 13 13 14 15 15 16 17 18 18 14 16 15 16 13 12 13 12 11 11 11 11 11 13 13 12 12 11 12 12 12 11 11 11 10 10 11 11 11
11 11 11 12 12 12 12 13 14 14 15 16 16 17 18 18 18 16 16 14 14 13 13 12 11 10 13 13 13 13 13 12 12 12 12 12 11 11 11 11 11 11 11 11
11 12 12 11 12 12 13 13 14 14 16 17 16 17 17 17 18 16 16 16 15 14 13 13 12 11 13 13 14 14 14 12 12 12 12 12 12 11 11 11 11 11 11 11
9 11 12 12 12 12 13 13 13 14 16 17 18 17 17 18 18 16 15 15 15 14 14 13 12 12 13 13 14 14 15 13 12 12 12 12 12 12 12 12 11 11 11 9
7 8 10 11 12 12 12 13 13 14 15 15 18 19 18 18 18 17 16 16 15 12 13 14 13 12 12 14 13 13 14 14 13 12 12 12 12 12 12 12 12 12 11 11
5 6 8 9 10 11 11 12 13 14 14 16 16 18 19 18 18 18 16 16 16 12 12 14 13 13 14 13 13 13 13 14 14 12 12 12 12 12 12 12 12 12 12 12
4 5 6 8 10 10 11 11 12 12 13 14 16 18 17 18 18 18 17 16 16 14 10 9 13 14 14 14 13 14 14 13 14 13 13 13 12 12 12 12 12 12 12 12
1 4 5 7 8 9 10 10 11 11 12 13 16 16 17 17 18 18 17 17 17 16 14 14 15 14 14 13 13 14 14 14 13 13 13 13 13 13 13 13 13 13 12 13
1 1 2 5 7 6 8 10 10 11 12 13 13 15 16 16 16 16 16 15 15 15 16 16 15 15 14 14 14 13 13 14 14 14 13 14 14 14 13 13 13 13 13 13
0 1 2 3 3 4 5 7 9 10 10 11 12 14 9 11 11 13 12 15 14 14 14 15 15 14 14 12 14 13 13 13 14 14 14 14 14 14 14 13 13 13 13 13
-0 -0 -0 0 2 2 4 5 7 8 8 9 10 10 8 9 9 9 10 10 10 11 13 13 14 14 13 12 14 14 13 13 13 14 14 14 13 14 14 13 13 13 13 14
0 -2 -1 -0 2 2 3 5 6 7 8 8 8 9 9 7 8 7 7 7 7 7 13 14 14 14 12 11 11 13 13 12 12 13 14 14 13 14 14 14 14 14 14 14
0 0 -2 -1 -0 0 3 5 5 6 6 7 8 8 8 6 5 5 5 5 7 9 12 13 13 14 14 12 12 11 11 13 12 13 14 15 14 13 14 14 14 14 14 14
0 -0 -0 -2 0 -1 2 2 3 3 6 6 5 4 5 4 4 4 4 5 6 8 10 12 12 12 13 13 12 13 12 11 13 14 15 15 15 14 13 13 14 14 14 14
-2 -1 -0 0 -0 1 0 -0 1 1 4 3 4 4 5 5 4 5 5 6 6 8 10 10 11 11 12 12 13 12 12 12 15 15 14 14 15 15 14 13 13 13 13 14
-3 -1 -3 -1 1 1 1 -0 -1 -0 1 1 2 3 3 3 3 4 5 5 6 7 9 9 11 11 12 12 13 13 13 14 14 15 14 14 15 15 15 14 13 13 13 13
-4 -4 -3 -2 -1 -0 -1 -1 -1 -1 -1 -1 1 2 3 2 2 4 5 6 5 6 8 9 10 11 12 12 12 13 13 13 14 15 16 15 15 15 15 14 14 13 13 12
-4 -5 -5 -4 -3 -2 -3 -3 -2 -3 -2 -0 0 0 1 2 2 2 4 5 6 6 7 8 10 11 11 12 12 13 14 14 15 15 16 16 16 15 15 15 14 14 13 13
-5 -5 -5 -4 -3 -4 -3 -3 -4 -4 -3 -1 -0 0 0 1 2 3 4 4 5 6 7 8 9 10 10 11 12 12 13 14 13 15 16 16 16 16 15 15 15 14 14 14
-5 -5 -5 -5 -5 -5 -5 -5 -5 -3 -3 -2 -1 -0 -0 0 1 1 3 4 4 6 7 7 8 8 9 10 11 11 12 13 12 14 15 16 16 16 16 15 15 15 14 14
-5 -5 -6 -6 -6 -6 -5 -4 -4 -3 -3 -2 -2 -1 -1 1 0 0 1 1 3 4 4 5 6 7 7 9 9 10 10 11 12 13 14 15 15 16 16 16 15 15 14 13
Height
3126 3129 3127 3131 3134 3136 3134 3133 3133 3134 3136 3139 3143 3141 3141 3146 3151 3151 3161 3164 3165 3166 3172 3178 3182 3183 3183 3186 3191 3194 3197 3202 3205 3210 3213 3216 3220 3221 3224 3226 3227 3228 3230 3230
3127 3123 3128 3131 3133 3134 3134 3133 3131 3130 3132 3135 3136 3135 3137 3141 3150 3134 3146 3158 3165 3166 3169 3174 3178 3180 3181 3184 3188 3193 3196 3200 3205 3209 3212 3216 3219 3222 3224 3227 3228 3229 3231 3231
3122 3123 3125 3128 3130 3131 3131 3131 3131 3131 3129 3130 3132 3130 3133 3135 3145 3149 3146 3152 3160 3164 3165 3169 3173 3176 3178 3181 3186 3191 3194 3198 3203 3207 3210 3214 3217 3220 3224 3225 3228 3229 3231 3232
3119 3122 3123 3124 3126 3129 3128 3130 3131 3131 3130 3126 3129 3127 3124 3131 3135 3147 3153 3151 3153 3162 3162 3165 3168 3172 3174 3178 3183 3189 3193 3197 3201 3205 3209 3212 3216 3219 3223 3223 3227 3230 3231 3232
3116 3118 3120 3121 3123 3126 3127 3129 3129 3130 3130 3128 3123 3125 3126 3126 3131 3140 3139 3149 3153 3154 3159 3161 3163 3167 3171 3175 3180 3185 3190 3195 3199 3203 3207 3211 3214 3218 3221 3224 3225 3227 3230 3231
3113 3115 3116 3118 3121 3123 3126 3127 3127 3127 3127 3123 3122 3121 3121 3123 3129 3136 3138 3141 3145 3147 3157 3160 3162 3165 3168 3172 3176 3181 3187 3191 3196 3200 3204 3208 3212 3216 3219 3222 3224 3225 3228 3230
3110 3110 3112 3115 3117 3120 3123 3124 3124 3123 3119 3116 3121 3120 3116 3116 3116 3121 3126 3135 3138 3144 3149 3156 3158 3160 3163 3166 3171 3176 3183 3187 3193 3197 3200 3205 3210 3213 3217 3220 3222 3225 3226 3229
3107 3105 3107 3111 3111 3114 3116 3120 3119 3117 3112 3111 3115 3110 3113 3113 3119 3118 3121 3128 3132 3138 3144 3148 3152 3155 3158 3162 3166 3171 3177 3184 3188 3194 3198 3202 3207 3210 3214 3218 3221 3223 3226 3227
3107 3104 3103 3104 3107 3111 3111 3113 3117 3115 3111 3107 3104 3106 3112 3113 3118 3120 3119 3123 3128 3129 3137 3144 3148 3150 3153 3159 3162 3167 3172 3179 3184 3189 3194 3198 3204 3207 3210 3214 3218 3221 3224 3226
3110 3106 3103 3104 3103 3104 3107 3110 3113 3111 3108 3103 3099 3097 3099 3107 3111 3115 3115 3120 3123 3122 3127 3139 3144 3145 3148 3154 3159 3163 3167 3173 3181 3186 3191 3194 3199 3204 3208 3211 3215 3218 3223 3225
3110 3110 3102 3103 3103 3102 3106 3104 3105 3107 3108 3104 3102 3096 3095 3094 3101 3109 3108 3112 3108 3116 3110 3135 3141 3141 3144 3148 3153 3158 3162 3167 3173 3178 3185 3190 3194 3199 3203 3208 3211 3216 3219 3223
3110 3107 3104 3102 3101 3102 3100 3099 3104 3104 3105 3101 3101 3093 3094 3093 3095 3103 3110 3110 3113 3119 3113 3087 3129 3131 3138 3142 3147 3152 3157 3161 3168 3173 3178 3184 3189 3194 3198 3201 3207 3211 3215 3219
3109 3108 3103 3101 3101 3099 3098 3099 3101 3102 3104 3098 3099 3094 3098 3099 3097 3099 3104 3111 3111 3113 3111 3113 3121 3128 3134 3139 3143 3147 3152 3157 3162 3168 3172 3177 3182 3187 3192 3196 3201 3206 3211 3215
3109 3110 3109 3102 3098 3101 3096 3096 3097 3097 3097 3096 3096 3096 3099 3100 3097 3098 3099 3100 3106 3109 3116 3122 3125 3128 3129 3135 3139 3143 3147 3152 3157 3162 3166 3170 3175 3181 3186 3191 3195 3200 3205 3209
3108 3105 3105 3101 3099 3100 3098 3095 3093 3093 3095 3093 3093 3095 3095 3091 3093 3094 3100 3101 3103 3108 3111 3114 3117 3123 3124 3124 3133 3139 3143 3148 3152 3156 3161 3165 3171 3176 3180 3185 3190 3194 3199 3204
3103 3101 3101 3097 3097 3098 3094 3093 3093 3092 3091 3092 3092 3087 3093 3099 3098 3100 3096 3099 3099 3100 3103 3104 3107 3112 3118 3121 3128 3133 3137 3142 3148 3151 3155 3160 3165 3169 3174 3178 3183 3188 3192 3197
3101 3098 3100 3096 3096 3093 3089 3089 3090 3090 3091 3093 3092 3093 3099 3095 3092 3094 3093 3095 3092 3092 3097 3106 3111 3112 3111 3116 3118 3134 3133 3138 3142 3146 3150 3154 3159 3163 3168 3173 3177 3181 3186 3191
3096 3097 3096 3094 3095 3090 3082 3085 3087 3085 3086 3090 3088 3092 3090 3094 3092 3091 3093 3090 3091 3094 3097 3102 3106 3108 3109 3111 3106 3128 3131 3131 3137 3141 3145 3149 3154 3158 3163 3167 3171 3175 3179 3184
3093 3093 3091 3093 3090 3088 3077 3079 3080 3075 3082 3080 3079 3080 3079 3080 3086 3089 3089 3086 3086 3090 3093 3097 3104 3106 3106 3108 3116 3117 3119 3125 3131 3136 3139 3144 3149 3153 3158 3161 3165 3169 3173 3177
3085 3084 3087 3086 3086 3082 3076 3079 3078 3079 3078 3073 3073 3071 3077 3084 3094 3088 3086 3086 3085 3087 3091 3094 3099 3103 3104 3106 3108 3111 3118 3122 3124 3131 3135 3138 3144 3148 3152 3157 3160 3164 3167 3172
3083 3080 3081 3080 3079 3079 3076 3078 3077 3080 3078 3070 3069 3070 3072 3075 3076 3081 3082 3084 3083 3083 3088 3091 3094 3098 3101 3104 3106 3110 3114 3117 3121 3124 3128 3132 3137 3142 3147 3151 3155 3158 3162 3165
3084 3082 3079 3078 3078 3080 3076 3074 3077 3074 3070 3070 3067 3067 3066 3070 3069 3074 3077 3081 3077 3077 3081 3086 3090 3093 3096 3098 3100 3104 3108 3113 3115 3118 3120 3124 3129 3134 3140 3145 3149 3152 3155 3158
3083 3082 3080 3080 3075 3074 3069 3069 3064 3066 3066 3068 3065 3065 3062 3062 3063 3065 3067 3072 3075 3072 3075 3079 3082 3086 3089 3092 3095 3097 3101 3105 3110 3112 3113 3117 3121 3126 3132 3138 3142 3145 3148 3151
3081 3079 3077 3073 3072 3065 3063 3063 3059 3059 3057 3060 3060 3060 3059 3057 3056 3056 3059 3062 3067 3068 3069 3071 3075 3079 3082 3084 3087 3090 3096 3100 3104 3106 3108 3111 3115 3119 3124 3129 3134 3138 3141 3144
3078 3075 3072 3068 3063 3057 3057 3053 3051 3051 3050 3050 3049 3050 3051 3052 3050 3049 3052 3053 3057 3060 3061 3065 3069 3072 3075 3077 3080 3084 3088 3093 3098 3099 3101 3105 3107 3111 3116 3121 3125 3130 3135 3138
3074 3071 3068 3064 3060 3054 3049 3045 3043 3041 3039 3039 3039 3040 3042 3043 3043 3044 3047 3049 3051 3054 3056 3059 3062 3065 3067 3069 3072 3076 3080 3084 3086 3088 3090 3095 3099 3103 3108 3112 3116 3121 3128 3132
Wind_Speed
18 20 24 22 22 22 21 21 20 20 21 24 20 22 25 26 19 26 29 24 28 31 34 32 30 29 27 26 22 22 22 19 20 18 17 14 14 16 12 9 7 4 4 4
19 28 20 17 20 22 23 22 20 20 21 22 22 26 27 28 21 28 34 25 26 26 30 34 34 31 29 26 23 24 23 19 20 19 17 15 15 15 15 16 8 5 3 4
25 16 19 22 21 23 23 23 20 19 16 20 24 21 31 25 9 23 27 23 25 31 32 32 34 34 31 28 23 24 23 19 21 20 20 18 17 15 13 10 8 7 5 4
24 23 16 21 26 22 25 20 22 20 19 23 23 25 35 28 26 28 21 27 28 30 33 35 32 35 33 29 26 24 23 20 23 23 22 20 18 14 11 11 10 8 5 5
22 25 26 24 23 24 25 19 19 22 23 23 28 26 20 30 33 37 20 32 31 30 33 32 28 32 31 31 27 25 25 23 23 24 24 22 20 17 13 12 9 8 5 4
19 20 26 28 24 19 22 22 21 21 24 23 29 28 28 31 36 33 18 35 34 30 33 34 32 26 29 30 29 28 26 24 25 24 24 24 22 19 16 15 14 10 7 6
14 22 22 24 26 28 22 22 21 19 19 17 27 30 28 21 31 32 23 34 36 34 31 36 35 32 25 27 26 27 28 27 25 24 25 24 24 22 19 17 14 11 9 9
18 15 20 26 28 27 31 27 26 18 13 17 29 30 34 35 18 32 22 33 37 33 35 31 37 33 27 25 24 25 25 28 27 26 25 24 25 26 23 20 16 15 12 10
12 18 20 16 26 27 27 35 29 33 29 27 29 27 30 29 25 22 22 35 40 42 36 36 34 35 28 26 23 20 22 25 29 28 27 27 26 27 26 24 21 19 16 12
10 21 17 14 15 31 31 25 31 33 21 22 26 29 30 30 32 25 26 27 36 46 41 40 36 34 30 25 25 24 21 20 25 28 28 28 26 27 28 27 24 22 20 18
11 16 25 19 15 20 23 33 32 25 34 16 15 23 24 36 33 34 26 21 20 36 40 43 38 33 22 24 27 28 26 21 24 31 30 30 29 29 30 29 28 25 23 21
9 14 20 22 19 17 22 23 30 25 23 27 32 30 19 8 30 31 25 27 21 24 21 29 42 29 28 26 27 27 29 27 22 28 31 30 30 29 30 32 31 29 27 24
9 7 19 20 20 22 22 25 29 30 31 34 22 34 19 8 9 22 25 20 22 16 21 16 24 30 31 29 27 26 27 27 27 25 32 33 32 31 31 31 31 31 30 26
14 19 21 25 18 20 17 27 29 30 34 32 33 27 7 8 8 7 20 20 16 21 20 20 25 22 30 28 29 27 28 27 25 24 27 31 32 32 32 32 32 32 31 30
11 20 23 29 28 23 22 21 19 27 34 33 26 29 18 9 12 16 5 20 19 14 13 19 23 17 29 35 28 28 28 30 27 26 23 25 29 30 32 34 33 33 32 31
11 19 19 26 28 25 26 25 25 25 21 25 28 31 11 22 9 7 7 8 9 10 22 23 26 23 33 30 27 22 23 27 30 27 23 22 24 29 30 33 35 34 34 32
16 14 12 18 20 26 30 29 26 25 26 25 26 22 15 15 14 12 2 1 6 6 25 26 30 26 22 27 26 19 21 23 31 31 27 24 24 26 29 30 32 33 34 34
19 19 16 12 17 11 23 26 23 34 29 28 29 27 26 19 16 20 11 8 14 15 20 23 23 36 35 26 22 24 19 23 30 33 32 28 25 24 26 30 31 31 32 34
17 21 17 11 18 20 21 8 9 4 22 16 18 13 8 7 6 12 10 9 21 21 17 21 23 16 20 33 30 29 29 28 27 34 36 33 25 27 26 28 32 32 32 32
15 20 25 22 16 6 8 7 20 11 18 15 22 21 18 15 24 25 21 22 27 32 25 19 18 20 19 19 23 30 33 33 31 29 37 40 34 28 26 27 27 29 32 31
13 15 21 24 25 23 24 16 7 15 9 13 24 27 25 20 23 27 19 21 25 34 33 25 26 26 25 21 25 19 23 34 30 30 28 36 40 33 29 29 31 31 30 31
7 8 7 12 17 16 9 10 16 18 20 21 24 26 35 27 27 26 31 32 31 35 34 28 27 29 28 26 24 32 23 23 31 34 30 30 38 42 35 31 30 30 31 31
4 8 8 7 9 14 22 19 7 19 30 27 30 28 33 36 35 32 33 38 39 42 38 29 29 31 30 29 26 35 42 30 32 38 33 27 34 41 42 37 32 29 29 32
8 8 13 20 17 22 33 29 26 27 31 27 34 37 33 36 38 40 37 37 37 39 39 34 32 29 31 31 29 25 40 52 36 34 35 31 28 35 42 43 39 36 31 28
9 13 17 24 22 26 18 28 33 34 37 34 34 35 35 34 40 39 38 36 33 34 38 38 38 36 31 30 28 27 31 38 38 38 36 37 34 32 40 42 47 43 37 28
13 15 18 20 19 23 21 21 28 38 44 43 41 39 33 34 36 30 31 26 26 30 34 37 38 37 32 28 27 27 31 34 35 36 39 38 37 37 40 42 45 46 41 34
Wind_Direction
206 213 221 222 225 233 251 260 248 245 234 230 222 218 216 212 232 213 181 187 198 199 186 193 191 203 208 202 201 202 208 202 201 194 198 193 191 192 194 201 141 138 148 144
211 227 228 232 231 234 246 257 263 257 240 227 223 219 235 224 257 214 170 193 194 200 204 194 189 206 210 205 204 206 206 204 203 198 200 201 194 193 198 183 183 181 200 168
222 234 232 227 230 233 239 244 251 257 260 235 233 210 213 224 246 213 189 190 193 200 213 212 201 203 208 207 207 207 209 201 201 203 203 202 207 203 197 206 190 190 189 191
234 235 233 232 232 231 241 240 247 254 258 258 229 250 206 207 236 202 206 186 189 197 215 216 216 203 209 210 208 205 213 203 202 205 207 208 214 219 207 208 217 209 184 182
239 234 235 237 236 231 241 239 246 245 252 259 250 230 246 199 191 204 240 203 198 196 207 211 215 208 210 213 213 208 209 208 207 207 209 210 211 212 224 217 226 189 202 213
249 242 235 237 236 237 238 243 247 247 240 250 244 249 228 202 220 206 247 201 193 199 200 207 216 216 211 215 218 217 210 211 209 210 212 212 214 213 217 216 220 231 203 219
252 245 238 235 238 234 233 231 236 239 238 239 235 245 244 231 226 228 203 195 202 207 208 199 208 212 208 216 222 223 215 216 215 214 216 213 214 217 223 222 233 226 235 223
283 270 226 230 232 233 225 224 226 228 233 238 232 239 236 240 265 211 218 200 206 201 209 211 207 215 213 213 221 224 221 217 216 218 223 218 214 221 219 225 228 234 234 250
304 259 267 260 234 223 228 223 232 249 249 247 243 230 238 240 233 205 198 194 209 190 211 214 212 218 222 214 219 224 227 216 220 220 219 225 219 222 226 224 225 228 233 226
284 303 280 263 264 227 226 228 222 241 249 260 258 253 213 220 231 216 212 230 241 218 197 207 211 212 221 217 218 223 223 221 217 225 224 224 224 225 229 230 226 230 226 229
298 281 275 278 254 237 226 236 243 246 235 254 256 260 249 218 218 222 224 238 256 222 207 202 207 213 236 239 228 223 221 221 214 216 223 224 224 222 228 230 233 231 231 228
291 291 276 261 251 250 250 252 235 244 253 244 251 254 357 333 213 210 217 220 228 245 222 251 192 211 221 239 238 229 223 224 225 219 220 223 222 226 227 233 232 231 231 230
312 285 293 262 258 248 248 245 247 247 243 260 240 250 270 278 219 211 213 216 223 229 228 214 189 207 219 230 243 235 227 224 226 225 222 222 223 222 225 231 234 233 233 234
278 270 266 278 265 319 295 241 245 242 244 240 246 247 243 233 254 181 163 179 175 172 190 202 197 223 226 227 240 237 231 231 228 230 228 227 226 226 225 227 231 234 232 234
279 270 261 264 273 291 271 266 260 247 248 259 252 240 359 69 88 122 99 195 200 184 173 171 172 186 236 207 234 237 235 233 237 233 230 232 230 230 229 227 228 232 232 233
290 266 268 271 266 272 267 253 246 253 257 247 257 273 311 257 260 25 100 110 106 160 191 179 184 193 199 195 237 231 235 236 236 243 245 232 232 229 233 230 229 227 230 232
270 274 282 278 267 272 262 244 245 246 240 246 253 253 251 304 248 233 89 256 129 146 200 209 206 199 182 203 200 255 252 240 237 236 241 240 235 231 225 229 229 229 228 231
259 259 260 269 290 267 256 241 258 246 246 244 260 265 265 267 221 238 294 301 259 236 204 213 217 219 215 197 174 194 244 258 234 234 234 236 234 232 226 225 227 227 228 228
255 256 251 249 268 277 276 248 255 335 240 242 246 259 259 162 202 257 248 259 262 237 217 201 217 215 217 227 213 206 209 227 243 233 233 235 234 237 231 227 227 227 228 230
258 254 254 248 249 275 358 291 274 304 242 255 252 254 242 212 226 242 232 234 253 252 230 230 236 248 245 225 206 213 219 222 231 228 236 237 234 237 234 232 231 231 231 230
320 270 250 256 262 257 266 274 304 250 257 274 252 261 261 245 206 219 227 240 251 260 255 258 256 264 254 254 237 225 227 231 239 247 233 239 236 232 232 232 235 236 233 230
306 318 304 269 250 263 311 289 273 266 260 269 264 261 254 262 265 242 236 252 269 271 268 266 261 256 251 255 260 236 243 251 240 247 241 233 234 233 229 229 228 232 234 230
296 300 290 293 278 241 286 263 279 253 253 260 270 275 270 252 260 264 261 253 252 262 262 262 262 256 250 247 248 238 236 244 242 239 242 236 234 233 229 228 229 227 230 231
310 316 307 301 301 273 257 268 262 267 269 259 258 264 271 264 253 253 256 258 249 251 255 256 256 257 248 247 244 238 226 235 251 242 243 238 239 234 232 229 232 232 233 235
320 311 313 310 307 301 277 256 262 261 266 263 261 259 260 260 256 256 250 255 254 248 251 251 253 258 257 249 243 235 232 229 236 237 242 240 235 237 231 232 236 235 235 240
301 323 320 328 318 310 305 276 265 264 263 262 261 259 255 250 254 261 249 252 252 251 253 251 252 254 258 254 244 232 231 232 237 240 242 236 238 236 230 232 232 234 233 236